Home > Weather > Bern > Past weeks

Flag for Switzerland Past Weather in Bern, Bern, Switzerland — Yesterday and Last 2 Weeks

Now
64 °F

Broken clouds.


Feels Like: 64 °F
Forecast: 57 / 76 °F
Wind: 5 mph from East

Location: Bern / Belp

Current Time: Jul 24, 2016 at 9:04:02 AM

Latest Report: Jul 24, 2016 at 8:20 AM


Visibility: N/A

Pressure: 30.12 "Hg (28.29 "Hg at 533m altitude)

Humidity: 88%

Dew Point: 61 °F

Location of BernLocation

Past Weather in Bern — Graph

°F

Bern Temperature Yesterday

Maximum temperature yesterday: 75 °F (at 1:20 PM)
Minimum temperature yesterday: 63 °F (at 12:20 AM)
Average temperature yesterday: 67 °F

High & Low Weather Summary for the Past Weeks

 TemperatureHumidityPressure
High91 °F (Jul 19, 5:50 PM)100% (Jul 10, 6:20 AM)30.33 "Hg (Jul 10, 6:20 AM)
Low43 °F (Jul 16, 4:50 AM)26% (Jul 19, 5:20 PM)29.95 "Hg (Jul 10, 4:20 PM)
Average66 °F76%30.11 "Hg
* Reported Jul 9 7:20 AM — Jul 24 7:50 AM, Bern, Weather by CustomWeather, © 2016

Note: Actual official high and low records may vary slightly from our data, if they occured in-between our weather recording intervals... More about our weather records

Advertising

Bern Weather History for the Previous 24 Hours

Scroll right to see more
 ConditionsComfort  
Time TempWeatherWind HumidityBarometerVisibility
7:50 AM
Sun, Jul 24
63 °FBroken clouds.6 mph94%30.12 "HgN/A
7:20 AM63 °FPartly sunny.5 mph94%30.12 "HgN/A
6:50 AM61 °FPassing clouds.5 mph94%30.12 "HgN/A
6:20 AM61 °FPassing clouds.2 mph100%30.12 "HgN/A
5:50 AM61 °FOvercast.5 mph100%30.12 "HgN/A
5:20 AM61 °FPartly cloudy.5 mph94%30.12 "HgN/A
4:50 AM59 °FPassing clouds.6 mph100%30.12 "HgN/A
4:20 AM59 °FCool.5 mph100%30.12 "HgN/A
3:50 AM61 °FPassing clouds.3 mph94%30.12 "HgN/A
3:20 AM61 °FCool.5 mph94%30.12 "HgN/A
2:50 AM61 °FPartly cloudy.3 mph100%30.15 "HgN/A
2:20 AM61 °FCool.5 mph100%30.15 "HgN/A
1:50 AM63 °FOvercast.5 mph94%30.15 "HgN/A
1:20 AM63 °FOvercast.5 mph94%30.15 "HgN/A
12:50 AM63 °FPartly cloudy.2 mph100%30.15 "HgN/A
12:20 AM63 °FLight rain. Partly cloudy.2 mph100%30.15 "HgN/A
11:50 PM
Sat, Jul 23
64 °FRain. Mostly cloudy.2 mph94%30.15 "HgN/A
11:20 PM64 °FOvercast.2 mph94%30.15 "HgN/A
10:50 PM63 °FMostly cloudy.5 mph100%30.12 "HgN/A
10:20 PM63 °FPassing clouds.2 mph94%30.12 "HgN/A
9:50 PM63 °FScattered clouds.2 mph94%30.12 "HgN/A
9:20 PM64 °FScattered clouds.3 mph94%30.09 "HgN/A
8:50 PM66 °FScattered clouds.2 mph88%30.09 "HgN/A
8:20 PM66 °FSunny.2 mph88%30.09 "Hg10 mi
7:50 PM68 °FSunny.3 mph83%30.09 "Hg10 mi
7:20 PM70 °FScattered clouds.6 mph78%30.09 "HgN/A
6:50 PM72 °FScattered clouds.7 mph73%30.09 "HgN/A
6:20 PM72 °FPartly sunny.7 mph73%30.09 "HgN/A
5:50 PM68 °FLight rain. Partly sunny.9 mph78%30.09 "HgN/A
5:20 PM68 °FThundershowers. Broken clouds.8 mph73%30.09 "HgN/A
4:50 PM72 °FThundershowers. Broken clouds.8 mph65%30.09 "HgN/A
4:20 PM73 °FThundershowers. Broken clouds.2 mph61%30.09 "HgN/A
3:50 PM73 °FThundershowers. Scattered clouds.5 mph74%30.07 "HgN/A
3:20 PM73 °FThundershowers. Partly sunny.8 mph69%30.07 "HgN/A
2:50 PM73 °FBroken clouds.6 mph74%30.07 "HgN/A
2:20 PM75 °FPartly sunny.6 mph61%30.07 "HgN/A
1:50 PM75 °FPartly sunny.5 mph65%30.07 "HgN/A
1:20 PM75 °FPartly sunny.6 mph69%30.07 "HgN/A
12:50 PM73 °FBroken clouds.6 mph78%30.09 "HgN/A
12:20 PM72 °FPartly sunny.3 mph73%30.09 "HgN/A
11:50 AM72 °FOvercast.2 mph73%30.09 "HgN/A
11:20 AM72 °FBroken clouds.3 mph78%30.09 "HgN/A
10:50 AM70 °FBroken clouds.No wind83%30.07 "HgN/A
10:20 AM68 °FPartly sunny.2 mph88%30.07 "HgN/A
9:50 AM66 °FPartly sunny.2 mph88%30.07 "HgN/A
9:20 AM66 °FPartly sunny.2 mph88%30.07 "HgN/A
Weather by CustomWeather, © 2016

See weather overviewHow to use our weather pages